Location: Unspecified
(42.2730°N, 83.7130°W)
Time: 14:59:59
(UTC+00:00)

SJ-12 - Pass Details

Date: 14 December 2025
Orbit: 518 x 525 km, 97.8° (Epoch: 17 January)

Event Time Altitude Azimuth Distance (km) Brightness Sun altitude
Rises 22:40:16 0° 144° (SE) 2,627 7.2 -6.9°
Reaches altitude 10° 22:42:29 10° 135° (SE) 1,745 6.2 -7.2°
Maximum altitude 22:45:51 32° 71° (ENE) 901 4.4 -7.8°
Drops below altitude 10° 22:49:16 10° 7° (N) 1,761 6.1 -8.4°
Sets 22:51:31 0° 357° (N) 2,655 7.1 -8.8°
